Meteo orario Abazivka

Oggi, 8 Marzo, Lunedi

Tempo Temperatura Precipitazioni Vento Pressione Umidità
00:00 -4°C° 0 mm 7 m/s 748 mm Hg 68%
01:00 -4°C° 0 mm 7 m/s 748 mm Hg 68%
02:00 -4°C° 0 mm 6 m/s 747 mm Hg 75%
03:00 -4°C° 0 mm 6 m/s 747 mm Hg 76%
04:00 -4°C° 0 mm 6 m/s 747 mm Hg 77%
05:00 -4°C° 0 mm 6 m/s 746 mm Hg 78%
06:00 -4°C° 0 mm 6 m/s 746 mm Hg 77%
07:00 -4°C° 0 mm 6 m/s 746 mm Hg 76%
08:00 -3°C° 0 mm 7 m/s 746 mm Hg 75%
09:00 -2°C° 0 mm 7 m/s 746 mm Hg 73%
10:00 -2°C° 0 mm 7 m/s 746 mm Hg 71%
11:00 -1°C° 0 mm 7 m/s 746 mm Hg 68%
12:00 -1°C° 0 mm 7 m/s 746 mm Hg 69%
13:00 -1°C° 0 mm 7 m/s 746 mm Hg 69%
14:00 0°C° 0 mm 7 m/s 746 mm Hg 70%
15:00 -1°C° 0.2 mm 6 m/s 746 mm Hg 75%
16:00 -1°C° 0.2 mm 5 m/s 746 mm Hg 80%
17:00 -2°C° 0.2 mm 5 m/s 746 mm Hg 84%
18:00 -2°C° 0.1 mm 4 m/s 747 mm Hg 83%
19:00 -2°C° 0.1 mm 3 m/s 747 mm Hg 83%
20:00 -2°C° 0.1 mm 3 m/s 747 mm Hg 82%
21:00 -4°C° 0 mm 3 m/s 747 mm Hg 81%
22:00 -3°C° 0 mm 2 m/s 748 mm Hg 80%
23:00 -4°C° 0 mm 2 m/s 748 mm Hg 80%

Domani, 9 Marzo, Martedi

Tempo Temperatura Precipitazioni Vento Pressione Umidità
00:00 -5°C° 0 mm 3 m/s 748 mm Hg 80%
01:00 -5°C° 0 mm 3 m/s 748 mm Hg 80%
02:00 -4°C° 0 mm 4 m/s 748 mm Hg 81%
03:00 -6°C° 0 mm 5 m/s 748 mm Hg 82%
04:00 -6°C° 0 mm 5 m/s 749 mm Hg 82%
05:00 -6°C° 0 mm 5 m/s 749 mm Hg 83%
06:00 -6°C° 0 mm 5 m/s 749 mm Hg 79%
07:00 -6°C° 0 mm 6 m/s 750 mm Hg 75%
08:00 -8°C° 0 mm 6 m/s 750 mm Hg 71%
09:00 -6°C° 0 mm 6 m/s 751 mm Hg 65%
10:00 -5°C° 0 mm 6 m/s 751 mm Hg 59%
11:00 -5°C° 0 mm 6 m/s 751 mm Hg 52%
12:00 -5°C° 0 mm 6 m/s 752 mm Hg 52%
13:00 -4°C° 0 mm 6 m/s 752 mm Hg 51%
14:00 -4°C° 0 mm 6 m/s 752 mm Hg 51%
15:00 -5°C° 0 mm 5 m/s 753 mm Hg 54%
16:00 -6°C° 0 mm 5 m/s 753 mm Hg 57%
17:00 -6°C° 0 mm 5 m/s 753 mm Hg 60%
18:00 -7°C° 0 mm 5 m/s 754 mm Hg 63%
19:00 -7°C° 0 mm 4 m/s 755 mm Hg 65%
20:00 -8°C° 0 mm 4 m/s 755 mm Hg 68%
21:00 -8°C° 0 mm 4 m/s 756 mm Hg 68%
22:00 -8°C° 0 mm 4 m/s 756 mm Hg 68%
23:00 -9°C° 0 mm 4 m/s 756 mm Hg 67%

Dopodomani, 10 Marzo, Mercoledi

Tempo Temperatura Precipitazioni Vento Pressione Umidità
00:00 -9°C° 0 mm 4 m/s 757 mm Hg 67%
01:00 -8°C° 0 mm 3 m/s 757 mm Hg 66%
02:00 -8°C° 0 mm 3 m/s 757 mm Hg 65%
03:00 -8°C° 0 mm 3 m/s 757 mm Hg 66%
04:00 -8°C° 0 mm 3 m/s 758 mm Hg 67%
05:00 -9°C° 0 mm 3 m/s 758 mm Hg 68%
06:00 -8°C° 0 mm 3 m/s 758 mm Hg 66%
07:00 -8°C° 0 mm 3 m/s 758 mm Hg 64%
08:00 -7°C° 0 mm 2 m/s 758 mm Hg 61%
09:00 -6°C° 0 mm 2 m/s 758 mm Hg 55%
10:00 -5°C° 0 mm 2 m/s 758 mm Hg 49%
11:00 -4°C° 0 mm 2 m/s 759 mm Hg 43%
12:00 -4°C° 0 mm 2 m/s 758 mm Hg 40%
13:00 -3°C° 0 mm 2 m/s 758 mm Hg 38%
14:00 -1°C° 0 mm 1 m/s 758 mm Hg 35%
15:00 -1°C° 0 mm 1 m/s 758 mm Hg 37%
16:00 -1°C° 0 mm 1 m/s 758 mm Hg 39%
17:00 -1°C° 0 mm 1 m/s 757 mm Hg 41%
18:00 -4°C° 0 mm 2 m/s 758 mm Hg 45%
19:00 -4°C° 0 mm 2 m/s 758 mm Hg 48%
20:00 -5°C° 0 mm 2 m/s 758 mm Hg 52%
21:00 -5°C° 0 mm 2 m/s 758 mm Hg 53%
22:00 -3°C° 0 mm 1 m/s 758 mm Hg 53%
23:00 -3°C° 0 mm 1 m/s 758 mm Hg 54%

11 Marzo, Giovedi

Tempo Temperatura Precipitazioni Vento Pressione Umidità
00:00 -3°C° 0 mm 1 m/s 758 mm Hg 55%
01:00 -3°C° 0 mm 1 m/s 759 mm Hg 56%
02:00 -4°C° 0 mm 1 m/s 759 mm Hg 58%
03:00 -6°C° 0 mm 2 m/s 759 mm Hg 59%
04:00 -6°C° 0 mm 2 m/s 759 mm Hg 61%
05:00 -6°C° 0 mm 2 m/s 759 mm Hg 63%
06:00 -6°C° 0 mm 2 m/s 760 mm Hg 61%
07:00 -7°C° 0 mm 3 m/s 760 mm Hg 59%
08:00 -7°C° 0 mm 3 m/s 760 mm Hg 58%
09:00 -6°C° 0 mm 3 m/s 760 mm Hg 55%
10:00 -6°C° 0 mm 3 m/s 761 mm Hg 53%
11:00 -5°C° 0 mm 3 m/s 761 mm Hg 51%
12:00 -5°C° 0 mm 3 m/s 760 mm Hg 50%
13:00 -5°C° 0 mm 3 m/s 760 mm Hg 49%
14:00 -3°C° 0 mm 2 m/s 760 mm Hg 49%
15:00 -5°C° 0 mm 3 m/s 760 mm Hg 49%
16:00 -5°C° 0 mm 3 m/s 760 mm Hg 49%
17:00 -5°C° 0 mm 3 m/s 760 mm Hg 49%
18:00 -6°C° 0 mm 3 m/s 760 mm Hg 47%
19:00 -6°C° 0 mm 3 m/s 761 mm Hg 45%
20:00 -8°C° 0 mm 4 m/s 761 mm Hg 42%
21:00 -8°C° 0 mm 4 m/s 761 mm Hg 39%
22:00 -8°C° 0 mm 4 m/s 761 mm Hg 35%
23:00 -8°C° 0 mm 4 m/s 761 mm Hg 32%

12 Marzo, Venerdi

Tempo Temperatura Precipitazioni Vento Pressione Umidità
00:00 -8°C° 0 mm 4 m/s 761 mm Hg 32%
01:00 -9°C° 0 mm 4 m/s 761 mm Hg 32%
02:00 -9°C° 0 mm 4 m/s 761 mm Hg 32%
03:00 -9°C° 0 mm 4 m/s 761 mm Hg 33%
04:00 -9°C° 0 mm 4 m/s 761 mm Hg 33%
05:00 -9°C° 0 mm 4 m/s 761 mm Hg 34%
06:00 -10°C° 0 mm 5 m/s 761 mm Hg 34%
07:00 -8°C° 0 mm 5 m/s 761 mm Hg 35%
08:00 -9°C° 0 mm 6 m/s 761 mm Hg 35%
09:00 -8°C° 0 mm 6 m/s 760 mm Hg 34%
10:00 -7°C° 0 mm 7 m/s 760 mm Hg 33%
11:00 -6°C° 0 mm 7 m/s 760 mm Hg 32%
12:00 -6°C° 0 mm 7 m/s 759 mm Hg 32%
13:00 -4°C° 0 mm 7 m/s 759 mm Hg 32%
14:00 -4°C° 0 mm 8 m/s 758 mm Hg 31%
15:00 -3°C° 0 mm 7 m/s 758 mm Hg 34%
16:00 -4°C° 0 mm 7 m/s 758 mm Hg 36%
17:00 -4°C° 0 mm 7 m/s 757 mm Hg 39%
18:00 -4°C° 0 mm 7 m/s 757 mm Hg 41%
19:00 -4°C° 0 mm 7 m/s 757 mm Hg 44%
20:00 -6°C° 0 mm 8 m/s 757 mm Hg 46%
21:00 -7°C° 0.5 mm 8 m/s 757 mm Hg 59%
22:00 -8°C° 0.5 mm 9 m/s 757 mm Hg 72%
23:00 -9°C° 0.5 mm 9 m/s 757 mm Hg 84%

13 Marzo, Sabato

Tempo Temperatura Precipitazioni Vento Pressione Umidità
00:00 -9°C° 0.7 mm 9 m/s 756 mm Hg 87%
01:00 -8°C° 0.7 mm 8 m/s 756 mm Hg 90%
02:00 -7°C° 0.7 mm 8 m/s 756 mm Hg 93%
03:00 -7°C° 0.2 mm 8 m/s 756 mm Hg 93%
04:00 -7°C° 0.2 mm 8 m/s 756 mm Hg 93%
05:00 -7°C° 0.2 mm 8 m/s 756 mm Hg 93%
06:00 -6°C° 0.4 mm 8 m/s 756 mm Hg 93%
07:00 -6°C° 0.4 mm 8 m/s 756 mm Hg 93%
08:00 -6°C° 0.4 mm 7 m/s 756 mm Hg 93%
09:00 -4°C° 0.1 mm 7 m/s 756 mm Hg 91%
10:00 -3°C° 0.1 mm 7 m/s 756 mm Hg 89%
11:00 -2°C° 0.1 mm 6 m/s 756 mm Hg 86%
12:00 -2°C° 0 mm 6 m/s 756 mm Hg 84%
13:00 0°C° 0 mm 5 m/s 756 mm Hg 82%
14:00 +1°C° 0 mm 4 m/s 756 mm Hg 79%
15:00 +1°C° 0 mm 4 m/s 756 mm Hg 79%
16:00 +1°C° 0 mm 3 m/s 755 mm Hg 79%
17:00 +1°C° 0 mm 3 m/s 755 mm Hg 79%
18:00 0°C° 0 mm 3 m/s 755 mm Hg 79%
19:00 0°C° 0 mm 3 m/s 755 mm Hg 79%
20:00 -1°C° 0 mm 3 m/s 755 mm Hg 79%
21:00 -1°C° 0 mm 3 m/s 755 mm Hg 80%
22:00 -2°C° 0 mm 4 m/s 755 mm Hg 82%
23:00 -2°C° 0 mm 4 m/s 755 mm Hg 84%
Mostrare altro

Abbiamo bisogno del tuo consenso

Meteoprog e i nostri fornitori di servizi possono memorizzare e accedere a dati personali come cookie, identificatori di dispositivi o altre tecnologie simili sul tuo dispositivo e possono elaborare tali dati per personalizzare i contenuti e gli annunci, nonché fornire funzionalità dei social media e analizzarne il traffico.

  • Archiviare e/o accedere alle informazioni sul tuo dispositivo

    Cookie, identificatori di dispositivi o altre informazioni possono essere memorizzati o resi accessibili sul tuo dispositivo per le finalità sopra indicate.

  • Annunci e contenuti personalizzati, misurazione di annunci e contenuti, approfondimenti sul pubblico e sviluppo di prodotti

    Gli annunci e i contenuti possono essere personalizzati in base a un profilo. È possibile aggiungere più dati per personalizzare meglio annunci e contenuti. È possibile misurare il rendimento degli annunci e dei contenuti. È possibile ricavare informazioni sul pubblico che ha visto gli annunci e i contenuti. Tali dati possono essere utilizzati per sviluppare o migliorare l'esperienza, i sistemi e il software dell'utente.

Cliccando su “Accetto”, acconsenti all'uso di cookie, identificatori di dispositivo, web beacon o altre tecnologie simili. Puoi modificare le impostazioni nel browser del tuo dispositivo.

Per determinati scopi, è possibile fare affidamento su interessi legali, piuttosto che sul consenso. Puoi approfondire questo argomento consultando la nostra Informativa sulla privacy e sui cookie.